Simultaneous Nadir Overpasses (SNOs) Predictions

Prediction of SNOs between LANDSAT-8 and NOAA-19 Satellite Orbit:

Table of predicted SNOs for the next 14.0 days since TLE Epoch: 9/7/2019
Index Date (LANDSAT-8) Time (LANDSAT-8) Lat,Lon (LANDSAT-8) SZA (LANDSAT-8 ) Date (NOAA-19) Time (NOAA-19) Lat,Lon (NOAA-19) SZA (NOAA-19 ) Distance(km) Time Diff (sec)
1 09/07/2019 13:43:31 -79.04, 175.15 106.28 09/07/2019 13:43:35 -79.03, 175.31 106.26 3.49 4
2 09/09/2019 19:17:14 79.07, -88.09 74.62 09/09/2019 19:17:04 79.05, -88.13 74.60 1.92 10
3 09/09/2019 20:06:44 -78.96, 78.89 105.52 09/09/2019 20:07:55 -78.92, 80.22 105.43 28.79 71
4 09/12/2019 00:50:59 -79.08, 8.53 104.51 09/12/2019 00:50:22 -79.05, 8.63 104.54 3.47 37
5 09/12/2019 01:40:26 79.03, 175.88 75.44 09/12/2019 01:41:27 79.05, 175.92 75.48 2.07 61
6 09/14/2019 06:24:43 79.07, 105.03 76.35 09/14/2019 06:23:51 79.10, 104.98 76.36 3.68 52
7 09/14/2019 07:14:11 -79.04, -87.49 103.68 09/14/2019 07:14:46 -79.07, -87.50 103.65 2.97 35
8 09/16/2019 11:58:25 -79.20,-157.59 102.61 09/16/2019 11:57:16 -79.29,-159.94 102.71 49.83 69
9 09/16/2019 12:47:54 79.07, 9.24 77.23 09/16/2019 12:48:13 79.06, 9.26 77.24 0.45 19
10 09/18/2019 18:21:39 -79.08, 105.89 101.88 09/18/2019 18:21:33 -79.09, 105.79 101.88 2.40 6
11 09/20/2019 23:55:22 79.11,-157.39 79.04 09/20/2019 23:54:59 79.09,-157.47 79.01 2.53 23




NCC Satellite Simultaneous Nadir Overpasses (SNOs) Prediction Service
